SCOUT A DEB, 2226

Orbit data source: Space-Track

SCOUT A DEB, 2226 is space debris in LEO originally from a launch on Wed, 22 Dec 1965 UTC launched from the Air Force Western Test Range (AFWTR). Debris objects in space refer to the collection of defunct objects orbiting the Earth. Examples of debris include non-operational satellites, rocket bodies, and fragments generated from explosions, collisions, or faulty payload assembly.

Loading next visibility...
SCOUT A DEB details
Identifier
2226, 1965-109D
Orbit
LEO
Last TLE update1 day ago
Origin
Flag of USUSN BuWeps (US)
ManufacturerUnknown
MissionSpacecraft
Bus & MotorUnknown
MassUnknown
Launch date (UTC)
1965-12-22 (59 years ago)
Launch vehicleUnknown
Launch site
Air Force Western Test Range (AFWTR)
Object type
Payload
Rocket body
Debris
Shape & HBRUnknown
Radar Cross SectionSmall (<0.1 m²)

Expand to show TLE details & history

TLE from 1 day ago
0 SCOUT A DEB
1 02226U 65109D   24355.18003219  .00000263  00000-0  32039-3 0  9997
2 02226  89.0677 358.3814 0247855 177.8630 182.3645 13.51040136880229
Epoch: 2024-12-20T04:19Z
Definitive object data (Epoch: 2024-12-20T04:19:14.781Z)
Latitude0.00005°
Longitude-155.67943°
Altitude1,255.844 km
Speed7.137 km/s
True Right ascension23h 53m 31s
True Declination0° 00' 00"
Sunlit
Object was in daylight at TLE epoch
Visualization TLE readout
Latitude-31.74958°
Longitude24.75782°
Altitude932.9 km
Speed7.457 km/s
Apparent Right ascension08h 28m 29s
Apparent Declination-66° 20' 55"
Sunlit
Object is in daylight
Visualization observer readout
Local Sidereal Time14:09:52
Azimuth208.93° SW
Elevation-34.25°
Doppler factor1
Orbital elements
Apogee altitude1,249.976 km
Perigee altitude880.988 km
Semi-major axis7,443.619 km
Eccentricity0.0247855
Inclination89.0677°
RAAN358.3814°
Arg. of periapsis177.863°
True anomaly182.25085°
Mean anomaly182.3645°
Eccentric anomaly182.30733°
Mean motion3.37961 °/min
BSTAR0.00032039
Orbital period106.52 mins
Loading maneuver chart data...
Loading historical data...
Loading historical data...
Loading historical data...
Loading historical data...
Loading historical data...
Loading historical data...
Loading historical data...

SCOUT A DEB Visibility forecast

Observer location: undefined°, undefined

Span
Click to sort rows by Start time (UTC) header in descending order
Start Az.
Max El. time (UTC)
Max El. Az.
Max El.
End time (UTC)
End Az.
7 mins2024-12-21 23:08:38.293Z103.684° ESE2024-12-21 23:11:38.293Z77.34° E16.524°2024-12-21 23:15:38.293Z40.258° NE
13 mins2024-12-22 00:51:38.293Z180.901° SSW2024-12-22 00:57:38.293Z239.919° WSW44.723°2024-12-22 01:04:38.293Z357.384° N
4 mins2024-12-22 02:43:38.293Z271.815° WNW2024-12-22 02:45:38.293Z289.483° WNW13.15°2024-12-22 02:47:38.293Z306.853° NW
9 mins2024-12-22 12:02:38.293Z18.64° NNE2024-12-22 12:06:38.293Z71.445° E34.235°2024-12-22 12:11:38.293Z153.245° SSE
6 mins2024-12-22 13:50:38.293Z318.995° NNW2024-12-22 13:53:38.293Z278.654° WNW21.258°2024-12-22 13:56:38.293Z241.676° WSW
|